Theta_e
309 304 301 299 297 296 296 296 296 295 295 295 294 293 292 291 290 290 289 289 288 288 287 287 286 286 285 284 283 283 283 282 282 283 283 283 283 283 282 282 281 281 280
305 301 299 298 296 296 296 296 295 295 295 294 293 292 291 291 290 289 289 288 288 288 287 287 286 286 285 285 284 283 282 282 281 282 282 282 282 282 282 281 280 280 279
300 299 298 297 296 296 296 295 295 295 294 293 292 291 291 290 289 289 288 288 288 288 287 287 287 286 286 285 285 284 282 281 281 280 281 281 282 281 281 279 278 278 278
298 297 296 296 296 296 296 295 295 294 293 292 291 291 290 289 289 289 288 288 288 287 287 287 287 286 286 285 284 284 282 281 281 280 280 281 280 280 277 276 277 277 277
297 297 296 296 295 295 295 294 294 293 292 291 290 290 289 289 289 288 288 288 287 287 287 287 287 286 286 285 284 284 282 281 280 279 279 279 279 277 276 276 275 275 276
297 296 295 295 295 294 294 293 293 292 291 290 290 289 288 289 288 288 288 287 287 287 287 286 286 286 286 285 284 283 282 280 279 279 278 277 277 276 275 275 274 274 275
296 295 294 294 294 293 293 293 292 292 291 290 289 289 288 288 288 288 287 287 287 286 286 286 286 286 285 285 284 283 282 280 278 277 277 277 276 275 274 274 274 273 273
295 295 294 294 293 293 293 292 292 293 290 290 290 288 288 288 287 287 287 287 286 286 286 286 285 285 285 284 284 283 282 280 279 278 277 276 275 274 274 273 273 273 274
296 295 294 294 293 294 293 292 291 294 291 294 289 288 287 287 287 287 286 286 286 286 286 285 285 285 284 284 283 283 282 281 279 277 276 276 275 274 273 273 273 273 274
298 297 295 295 297 293 292 292 295 295 294 289 288 288 287 287 287 287 286 286 286 286 286 285 284 284 283 283 282 282 281 280 278 277 277 276 275 274 273 273 273 272 271
305 305 304 300 297 293 291 293 295 293 289 289 288 288 287 287 287 286 286 286 286 285 285 285 284 283 283 282 281 280 280 278 277 276 276 275 274 274 274 273 273 272 271
303 298 295 294 293 293 292 293 292 291 290 289 288 288 288 287 287 286 286 285 285 285 285 285 284 283 282 282 279 278 277 277 277 276 275 274 274 273 273 273 272 272 272
297 296 295 295 294 294 293 293 292 291 291 290 290 289 288 288 287 286 285 285 284 284 284 284 283 282 281 278 277 277 277 277 276 275 274 273 273 273 273 272 272 272 272
296 295 294 293 293 293 293 292 291 290 289 289 288 288 288 287 286 285 285 284 284 284 284 283 281 279 278 277 277 277 276 276 275 274 273 272 272 272 272 271 271 271 271
292 292 291 291 291 291 290 289 289 288 288 288 288 287 287 286 285 284 284 284 283 283 282 281 280 279 278 277 277 276 276 275 274 273 272 271 271 271 271 271 270 270 270
291 291 291 290 290 290 289 289 288 288 288 288 287 287 286 285 284 284 283 283 283 279 278 278 278 277 277 276 276 276 275 274 273 272 272 271 271 270 270 270 270 270 270
290 290 290 290 289 289 289 288 288 288 287 287 286 284 284 284 283 282 282 279 277 277 276 276 276 276 275 275 274 274 274 273 272 272 271 270 270 270 269 269 269 269 269
290 289 289 289 289 288 287 287 286 286 285 284 283 283 282 282 281 280 279 278 277 275 274 274 273 273 273 272 272 271 271 271 271 270 270 269 269 269 269 268 268 268 269
289 289 289 289 288 288 287 286 285 284 284 283 282 281 281 280 278 276 275 275 274 274 273 272 271 270 269 269 269 269 269 269 269 269 269 269 269 268 268 268 268 268 268
289 289 288 288 288 287 286 285 284 283 283 282 281 279 277 276 275 275 274 274 273 272 271 270 269 268 267 267 266 267 267 268 268 268 268 268 268 267 267 267 268 268 268
288 288 287 286 286 285 284 283 283 282 280 278 277 275 274 275 275 274 273 272 271 271 270 268 267 267 266 266 266 266 266 266 267 267 267 267 267 267 266 267 267 268 268
285 284 284 283 283 283 282 280 279 277 276 276 275 274 273 273 272 272 271 270 269 268 267 267 267 266 266 265 265 266 266 266 266 267 267 267 266 266 266 266 267 268 268
283 282 281 281 280 279 278 277 276 275 275 274 274 273 272 272 271 270 270 269 268 267 267 266 266 266 266 266 266 265 266 266 267 267 267 266 266 266 266 266 267 268 268
280 280 279 279 278 277 275 275 274 274 273 273 272 272 271 271 270 269 269 268 268 267 267 266 266 266 266 266 266 266 266 266 267 267 266 266 266 266 266 266 267 267 267
278 277 276 274 274 273 273 273 272 272 272 271 271 270 270 269 269 268 268 268 267 267 267 267 266 266 266 266 266 266 266 266 266 266 266 266 266 266 266 266 267 267 267
274 273 273 273 273 272 272 271 271 271 270 270 269 268 268 268 267 267 267 267 266 266 266 266 265 265 265 265 265 266 266 265 265 265 265 266 266 266 266 267 267 267 267
Wind_Speed
42 41 39 37 35 32 29 26 23 20 18 16 14 12 10 8 7 5 2 2 4 5 6 8 9 11 13 15 17 19 20 22 28 36 36 38 39 41 43 45 44 44 43
43 41 39 37 36 34 30 27 24 22 20 18 16 14 13 11 9 7 4 3 4 5 7 9 10 12 15 17 19 20 22 24 28 34 38 39 40 42 44 47 48 47 47
44 42 41 39 37 35 31 29 26 24 22 21 19 17 15 14 12 9 7 6 7 8 9 10 11 14 16 19 21 23 24 26 27 32 37 39 41 42 45 48 49 48 47
44 43 42 40 37 34 31 30 28 26 24 23 21 20 18 17 15 13 10 10 11 11 12 13 14 16 18 20 22 24 25 27 29 31 35 38 39 41 44 45 51 47 49
46 45 43 40 36 34 33 32 29 27 26 24 23 22 21 20 18 15 13 14 15 15 15 16 17 18 20 22 24 25 27 29 30 31 34 36 38 42 44 44 43 45 50
48 47 44 40 38 36 35 32 30 28 27 27 27 25 24 21 21 17 16 18 19 19 19 19 20 21 22 23 25 26 27 29 30 30 32 32 38 41 41 39 39 48 51
50 46 43 40 39 36 35 33 32 30 30 29 28 27 26 23 22 19 20 21 22 22 22 22 23 23 24 25 26 27 28 28 28 25 29 31 37 36 34 42 43 43 45
46 44 42 41 38 36 36 35 32 30 30 29 29 29 27 25 23 23 24 24 24 24 24 25 26 26 26 27 29 30 30 30 28 27 29 33 33 29 33 36 38 40 42
44 44 42 40 38 38 40 37 31 30 27 31 32 30 30 25 25 25 25 27 27 27 27 27 28 28 27 28 31 32 32 32 29 28 30 33 32 31 31 33 34 36 42
36 38 38 39 40 41 38 35 30 28 30 33 30 30 28 26 27 27 27 28 29 29 29 29 29 30 30 30 31 31 33 32 30 33 36 35 31 29 28 28 29 32 34
24 28 31 33 35 37 35 32 30 31 30 29 29 27 27 28 28 29 29 29 29 30 30 31 30 30 31 32 31 30 32 30 32 35 36 37 32 29 28 28 28 29 32
20 21 23 25 28 29 29 29 28 27 28 28 28 28 29 30 30 31 30 29 29 31 32 32 32 31 33 33 31 29 24 29 34 36 38 36 32 30 29 28 28 29 29
17 17 18 20 22 23 25 25 26 26 27 28 29 29 28 30 32 31 30 30 29 30 32 34 34 34 33 27 25 27 31 35 36 35 35 33 30 30 29 30 29 30 31
16 18 19 20 21 22 23 23 24 25 26 26 27 27 29 31 31 31 30 29 29 30 32 32 33 33 33 31 33 32 32 32 33 34 34 32 31 29 29 30 31 30 33
16 16 17 18 20 21 23 23 23 24 25 26 27 29 31 33 30 29 29 28 28 30 32 34 35 34 34 33 32 32 32 33 32 32 32 31 30 30 29 29 28 28 29
16 17 18 19 21 23 24 25 25 26 27 28 29 30 29 29 28 27 28 27 28 24 25 32 36 37 36 33 33 35 33 31 30 30 30 29 29 29 29 28 25 25 28
16 17 18 20 22 25 27 27 27 27 28 29 29 27 26 24 24 22 23 24 19 22 29 33 36 39 39 36 32 29 30 29 28 29 29 27 27 27 27 26 24 23 25
17 17 17 18 20 22 24 25 26 26 25 23 22 21 20 22 23 25 26 27 29 29 32 34 37 38 39 38 35 29 30 28 28 28 27 25 25 26 26 23 21 21 23
18 17 17 18 19 21 22 23 22 21 20 19 19 20 21 23 24 25 27 29 30 31 31 32 32 33 34 33 32 27 27 26 26 27 26 24 23 24 23 21 20 18 20
18 18 18 18 18 19 20 19 18 17 17 17 19 20 21 23 24 24 25 27 28 29 28 28 27 27 26 24 23 25 27 26 25 25 24 22 21 22 21 20 18 18 18
18 18 18 17 17 17 16 16 16 16 17 18 18 19 20 23 23 24 25 25 25 25 24 23 22 22 21 20 20 21 20 21 21 22 22 21 21 20 18 19 16 15 17
15 14 13 13 13 14 15 15 16 16 16 17 18 19 20 21 23 23 23 23 22 22 21 22 21 20 19 20 21 20 20 20 20 20 21 20 20 19 17 18 15 14 14
13 13 13 13 13 14 14 15 15 16 17 17 18 19 20 21 22 22 21 20 19 18 19 21 21 20 19 19 19 20 21 20 20 20 20 19 19 17 17 17 16 14 13
12 12 12 13 13 15 15 15 15 15 16 17 18 20 20 21 20 20 19 19 19 18 19 19 20 20 20 19 20 20 20 20 20 19 19 19 19 17 17 17 15 14 14
12 12 13 14 14 13 13 14 15 16 17 18 18 18 18 19 18 18 18 20 20 20 19 19 19 19 19 19 19 20 19 19 19 19 19 19 18 17 17 17 15 15 15
13 13 12 12 13 15 16 16 16 17 17 17 18 17 17 17 17 17 18 20 20 20 20 19 18 18 18 18 18 19 19 18 18 18 18 18 18 17 17 17 16 17 16
Wind_Direction
199 198 198 197 198 199 199 199 201 201 204 207 206 206 209 212 215 224 241 329 336 342 342 339 334 323 316 313 313 311 310 309 307 309 315 319 321 322 323 324 327 326 326
203 202 200 201 201 200 200 202 204 208 211 212 212 213 217 217 221 225 238 294 307 318 331 334 329 323 316 314 310 309 307 306 306 307 311 315 316 320 323 326 328 328 329
205 203 203 204 203 202 203 205 208 212 214 214 215 220 222 224 228 232 245 263 282 300 313 314 314 320 321 316 310 308 306 305 305 304 306 311 315 321 324 327 329 327 326
206 207 207 207 207 207 207 210 213 215 217 217 219 222 223 227 234 241 249 267 274 290 294 297 304 311 317 314 310 306 303 302 302 303 305 310 315 324 327 325 324 325 324
210 211 212 212 211 211 211 212 215 218 220 221 223 224 226 230 239 245 257 268 272 278 282 289 294 303 307 307 305 303 302 303 303 304 304 312 318 322 324 323 322 323 321
214 214 214 214 215 214 215 215 218 220 222 224 227 228 231 238 242 250 264 267 273 277 281 284 289 294 298 301 302 301 300 300 300 302 305 309 313 318 322 322 315 317 320
217 217 217 218 219 217 218 220 222 226 229 230 233 235 235 240 245 258 264 266 274 278 281 283 284 287 292 297 299 297 297 296 294 294 296 304 313 319 318 313 316 315 315
219 221 222 222 223 224 225 226 226 235 234 237 242 240 242 243 251 262 264 270 273 278 279 280 282 286 292 297 299 298 298 294 295 300 302 306 312 309 306 310 310 312 311
225 226 227 228 228 234 230 229 230 242 240 250 244 243 245 248 257 263 266 272 276 278 278 280 281 285 293 293 294 296 297 296 299 297 292 297 304 308 309 308 313 315 319
225 230 232 234 237 236 235 233 238 243 248 246 247 247 248 252 256 261 265 270 275 278 279 281 284 289 291 289 290 293 294 297 296 292 293 304 306 308 308 307 313 317 321
227 232 232 236 233 235 235 235 240 246 246 246 247 249 250 253 256 259 263 269 275 278 278 282 285 286 286 287 286 284 288 290 287 286 296 303 304 304 305 306 311 314 315
222 222 226 226 227 228 231 236 240 240 241 242 245 248 250 254 257 260 265 270 273 275 280 284 285 286 285 285 284 284 270 269 275 288 295 299 301 303 303 305 310 309 310
199 205 211 214 219 224 228 231 232 233 237 241 245 249 253 257 260 266 268 266 268 272 279 284 287 287 288 285 278 269 270 274 282 286 299 299 298 299 303 306 308 309 309
196 201 207 213 218 221 223 224 229 235 241 246 250 254 260 265 267 266 265 267 271 275 279 281 280 278 278 277 278 276 275 282 286 294 300 296 295 298 302 306 311 314 314
200 207 213 217 222 222 223 227 234 239 244 250 254 258 259 262 267 268 268 271 273 276 277 276 277 280 283 285 283 282 281 283 282 293 295 292 293 297 301 305 310 312 316
211 217 223 227 228 229 232 236 241 245 249 253 256 261 265 269 271 270 271 276 282 287 291 293 294 293 291 291 289 285 273 270 281 290 290 287 290 295 299 303 308 310 317
227 231 235 236 237 240 243 246 250 252 255 257 262 267 268 263 261 267 272 274 271 265 264 267 267 273 281 286 289 289 273 278 283 289 287 284 287 292 296 301 306 310 317
241 241 241 243 244 247 249 251 253 256 260 262 264 264 262 264 271 274 277 278 279 278 277 277 277 277 278 281 283 281 277 278 282 287 283 281 284 288 292 298 302 311 318
247 248 248 249 250 251 252 252 253 255 256 255 254 257 264 270 275 277 281 286 288 289 289 287 285 284 284 281 277 275 275 279 283 283 279 278 281 284 288 294 297 308 317
248 247 248 249 250 252 253 253 253 252 252 253 258 263 269 273 275 281 284 286 289 290 292 291 289 288 289 285 283 279 277 278 277 276 276 278 278 281 286 290 293 306 316
250 249 249 248 249 250 250 250 251 254 259 264 269 272 274 277 286 289 293 295 295 296 297 294 295 290 285 279 283 291 284 275 273 274 276 275 274 277 280 284 289 301 311
249 248 248 247 247 246 247 249 254 259 264 267 270 275 279 286 289 291 292 294 296 298 297 296 297 294 289 286 285 282 278 278 278 278 276 273 274 277 277 279 280 292 303
241 242 243 245 247 249 252 255 258 261 266 270 276 281 283 283 284 286 289 291 293 293 292 291 291 291 288 286 283 282 282 282 280 278 275 273 273 275 273 276 274 281 291
250 250 251 250 249 248 248 252 257 264 270 275 278 279 279 282 286 289 291 292 292 291 290 288 289 289 287 284 284 281 279 280 279 277 275 274 274 272 269 272 272 275 284
244 243 242 242 245 252 258 264 267 268 271 273 274 277 281 284 288 290 292 292 293 291 289 288 289 287 286 286 286 283 279 278 278 277 276 275 274 270 268 269 274 268 274
238 240 244 253 260 262 262 263 264 266 268 271 275 277 280 284 288 290 291 291 291 292 292 290 289 288 286 286 286 282 280 278 276 275 274 274 274 272 269 268 272 271 270